Regional Weather Roundup
Issued by NWS Charleston, WV

Home | Current Version | Previous Version | Text Only | Print | Product List | Glossary On
Versions: 1 2 3 4 5 6 7 8 9 10 11 12 13 14 15 16 17 18 19 20 21 22 23 24 25 26 27 28 29 30 31 32 33 34
000
ASUS41 KRLX 132010
RWRRLX
Regional Weather Roundup
National Weather Service Charleston WV
400 PM EDT THU AUG 13 2020

Note: "fair" indicates few or no clouds below 12,000 feet with no
significant weather and/or obstructions to visibility.

WVZ003-132100-
Northern Panhandle of West Virginia

CITY           SKY/WX    TMP DP  RH WIND       PRES   REMARKS
WHEELING       MOSUNNY   93  61  34 NE6       30.00F
$$

WVZ009-132100-
Northwest West Virginia

CITY           SKY/WX    TMP DP  RH WIND       PRES   REMARKS
PARKERSBURG    MOSUNNY   91  66  43 NE10      29.99F
$$

WVZ006-132100-
Western West Virginia

CITY           SKY/WX    TMP DP  RH WIND       PRES   REMARKS
HUNTINGTON     MOSUNNY   87  69  54 N7        29.98F
$$

WVZ015-132100-
West Central West Virginia

CITY           SKY/WX    TMP DP  RH WIND       PRES   REMARKS
CHARLESTON     MOSUNNY   90  66  45 VRB5      29.98F
$$

WVZ509-031-039-132100-
North Central West Virginia

CITY           SKY/WX    TMP DP  RH WIND       PRES   REMARKS
MORGANTOWN     MOSUNNY   90  63  40 SE14      30.02F
CLARKSBURG     PTSUNNY   87  68  52 E13       30.01F
BUCKHANNON     PTSUNNY   82  66  57 NE9G22    30.05R
$$

WVZ515-516-025-034-042-507-132100-
Southern West Virginia

CITY           SKY/WX    TMP DP  RH WIND       PRES   REMARKS
BECKLEY        PTSUNNY   80  66  62 N3        30.07F
LOGAN          FAIR      84  70  61 CALM      30.02F
PINEVILLE      RAIN      73  71  94 MISG      30.09F
BLUEFIELD      TSTM      68  68 100 VRB3      30.11F FOG
LEWISBURG      MOSUNNY   82  66  57 CALM      30.07F
$$

WVZ525-526-132100-
Northern Mountains of West Virginia

CITY           SKY/WX    TMP DP  RH WIND       PRES   REMARKS
ELKINS         PTSUNNY   76  68  76 N6        30.07S
$$

WVZ502-504-052-132100-
Eastern Panhandle of West Virginia

CITY           SKY/WX    TMP DP  RH WIND       PRES   REMARKS
PETERSBURG     NOT AVBL
CUMBERLAND     MOSUNNY   85  72  63 SW5       30.07F
MARTINSBURG    MOSUNNY   87  69  54 VRB6      30.02F
$$

OHZ075-083-KYZ101-132100-
Southeast Ohio/Northeast Kentucky

CITY           SKY/WX    TMP DP  RH WIND       PRES   REMARKS
ATHENS         MOSUNNY   91  62  36 N3        29.98F
JACKSON        FAIR      88  68  51 N6        29.99F
ASHLAND        MOSUNNY   90  74  59 VRB6      29.97F HX  99
$$



USA.gov is the U.S. government's official web portal to all federal, state and local government web resources and services.